Terug naar catalogus

STARLINK-37804

ActiefCommunicatieSSO
NORAD 69302·PAYLOAD·🇺🇸 United States

Gelanceerd May 30, 2026 vanaf Vandenberg Space Force Base

Loading…

Volgende Passages (komende 24 uur)

TLE

VersSource: CelesTrak SupGP

Epoch: Sep 15, 2026, 03:21 UTC

1 69302C 26119G   26258.14006944 -.00042426  00000+0 -13170-2 0  2581
2 69302  97.2824 282.9232 0001013 102.8264 129.1507 15.33460474    13

Volg STARLINK-37804 in realtime met AllMySat

Download on the App Store